Regional Weather Roundup
Issued by NWS Little Rock, AR

Home | Current Version | Previous Version | Graphics & Text | Print | Product List | Glossary On
Versions: 1 2 3 4 5 6 7 8 9 10 11 12 13 14 15 16 17 18 19 20 21 22 23 24 25 26 27 28 29 30 31 32
000
ASUS44 KLZK 191105
RWRLZK

WEATHER ROUNDUP FOR ARKANSAS
NATIONAL WEATHER SERVICE LITTLE ROCK AR
500 AM CST SUN NOV 19 2017

NOTE: "FAIR" INDICATES FEW OR NO CLOUDS BELOW 12,000 FEET WITH NO
SIGNIFICANT WEATHER AND/OR OBSTRUCTIONS TO VISIBILITY.

ARZ001-003-010-029-191200-
NORTHWEST ARKANSAS

CITY           SKY/WX    TMP DP  RH WIND       PRES   REMARKS
FAYETTEVILLE   CLEAR     27  27 100 CALM      30.25R
FORT SMITH     PTCLDY    35  32  88 W8        30.27R WCI  29
HARRISON       CLEAR     35  27  72 W7        30.22R WCI  29
BENTONVILLE    CLEAR     34  28  79 CALM      30.26S
ROGERS         CLEAR     34  29  82 CALM      30.25R
SILOAM SPGS    CLEAR     32  29  88 CALM      30.26R
HIGHFILL       CLEAR     35  28  75 NW5       30.25R WCI  31
$$

ARZ004-005-016-191200-
NORTH CENTRAL ARKANSAS

CITY           SKY/WX    TMP DP  RH WIND       PRES   REMARKS
BATESVILLE     CLEAR     40  28  62 NW5       30.21R
FLIPPIN        CLEAR     39  28  64 NW6       30.23R
MTN HOME       CLEAR     37  28  70 VRB5      30.20R
$$

ARZ040-041-191200-
WEST CENTRAL ARKANSAS

CITY           SKY/WX    TMP DP  RH WIND       PRES   REMARKS
MENA           PTCLDY    36  32  87 CALM      30.25R
MOUNT IDA      CLEAR     32  31  96 W3        30.22R
$$

ARZ009-017-025-026-028-191200-
NORTHEAST ARKANSAS

CITY           SKY/WX    TMP DP  RH WIND       PRES   REMARKS
JONESBORO      CLEAR     40  31  70 NW6       30.17R
NEWPORT        CLEAR     37  26  64 NW8       30.20R
WALNUT RIDGE     N/A     37  27  67 NW14      30.19R
BLYTHEVILLE    CLEAR     37  31  78 NW12      30.16R
$$

ARZ022-023-033-042-044-191200-
CENTRAL ARKANSAS

CITY           SKY/WX    TMP DP  RH WIND       PRES   REMARKS
LITTLE ROCK    PTCLDY    37  34  89 NW5       30.23R
N LITTLE ROCK    N/A     41  34  75 W3        30.24R
JACKSONVILLE   PTCLDY    33  30  89 W6        30.21R WCI  28
SEARCY         PTCLDY    34  32  92 W5        30.22R WCI  30
HOT SPRINGS    CLEAR     36  34  92 CALM      30.24R
RUSSELLVILLE   CLEAR     33  32  96 CALM      30.24R
CLINTON        FAIR      39  28  65 CALM      30.23R
$$

ARZ036-191200-
EAST ARKANSAS

CITY           SKY/WX    TMP DP  RH WIND       PRES   REMARKS
WEST MEMPHIS   PTCLDY    39  34  82 VRB3      30.16R
$$

ARZ050-053-066-070-073-191200-
SOUTHWEST ARKANSAS

CITY           SKY/WX    TMP DP  RH WIND       PRES   REMARKS
ARKADELPHIA    FAIR      34  33  96 CALM      30.26R
CAMDEN         CLEAR     32  30  93 CALM      30.25R
TEXARKANA      CLEAR     40  34  79 NW5       30.26S
EL DORADO      CLEAR     39  35  86 NW6       30.25R
DE QUEEN       PTCLDY    30  29  96 CALM      30.26S FOG
$$

ARZ056-057-069-191200-
SOUTHEAST ARKANSAS

CITY           SKY/WX    TMP DP  RH WIND       PRES   REMARKS
PINE BLUFF     PTCLDY    38  31  76 W6        30.22S
STUTTGART      PTCLDY    40  34  79 W9        30.21R
MONTICELLO     CLEAR     42  32  67 NW5       30.22R

$$






USA.gov is the U.S. government's official web portal to all federal, state and local government web resources and services.